This is the latest recevied weather packets stored in our database for station/object K4DNM. If no packets are shown the sender has not sent any weather packets the latest 10 day(s).
| Time | Temp. | Humidity | Pressure | Rain* | Wind** | Luminosity | Snow |
|---|---|---|---|---|---|---|---|
| 1778101714 | 25.56° C | 61% | 1010.4 hPa | 0 mm | - | 174 W/m² | - |
| 1778101416 | 25.56° C | 62% | 1010.3 hPa | 0 mm | - | 217 W/m² | - |
| 1778101113 | 25° C | 62% | 1010.5 hPa | 0 mm | - | 188 W/m² | - |
| 1778100813 | 25° C | 63% | 1010.4 hPa | 0 mm | - | 173 W/m² | - |
| 1778100517 | 25° C | 64% | 1010.4 hPa | 0.25 mm | - | 175 W/m² | - |
| 1778100211 | 25° C | 65% | 1010.4 hPa | 0.25 mm | - | 170 W/m² | - |
| 1778099911 | 25° C | 69% | 1010.4 hPa | 0.25 mm | - | 175 W/m² | - |
| 1778099612 | 24.44° C | 68% | 1010.4 hPa | 0.25 mm | - | 197 W/m² | - |
| 1778099311 | 23.89° C | 68% | 1010.4 hPa | 0.25 mm | - | 224 W/m² | - |
| 1778099012 | 23.89° C | 73% | 1010.6 hPa | 0.25 mm | - | 206 W/m² | - |
| 1778098711 | 23.33° C | 72% | 1010.2 hPa | 0.25 mm | - | 206 W/m² | - |
| 1778098412 | 23.33° C | 71% | 1010.1 hPa | 0.25 mm | - | 169 W/m² | - |
| 1778098111 | 23.89° C | 72% | 1010.5 hPa | 0.25 mm | - | 134 W/m² | - |
| 1778097870 | 24.44° C | 70% | 1011 hPa | 0.25 mm | - | 114 W/m² | - |
| 1778097511 | 25° C | 71% | 1011.4 hPa | 0.25 mm | - | 100 W/m² | - |
| 1778097209 | 25° C | 65% | 1011.6 hPa | 0.25 mm | - | 77 W/m² | - |
| 1778096968 | 25.56° C | 60% | 1011.7 hPa | 0 mm | - | 77 W/m² | - |
| 1778096602 | 26.11° C | 59% | 1011.6 hPa | 0 mm | - | 96 W/m² | - |
| 1778096362 | 26.11° C | 58% | 1011.9 hPa | 0 mm | - | 115 W/m² | - |
| 1778096001 | 26.11° C | 57% | 1012.1 hPa | 0 mm | - | 109 W/m² | - |
| 1778095698 | 26.11° C | 57% | 1012.3 hPa | 0 mm | - | 67 W/m² | - |
| 1778095399 | 26.67° C | 57% | 1012.3 hPa | 0 mm | - | 90 W/m² | - |
| 1778095097 | 26.67° C | 56% | 1012.2 hPa | 0 mm | - | 169 W/m² | - |
| 1778094811 | 26.67° C | 56% | 1012.2 hPa | 0 mm | - | 261 W/m² | - |
| 1778094557 | 26.67° C | 55% | 1012.2 hPa | 0 mm | - | 209 W/m² | - |
* Rain latest hour (hover to see other rain measurements)
** Current wind speed in m/s (hover to see current wind gust speed)